| time (UTC) | temp C | wind direction | speed KPH | gust KPH | rain 1hr cm | rain 24hr cm | rain mn cm | humidity % | barometer mb |
| 20260505220851 | 11 | 61 | 3.2 | 14.5 | 0.00 | 0.13 | 0.00 | 76 | 1009.0 |
| 20260505213853 | 11 | 0 | 3.2 | 12.9 | 0.00 | 0.15 | 0.13 | 76 | 1009.1 |
| 20260505200849 | 11 | 74 | 6.4 | 16.1 | 0.00 | 0.15 | 0.13 | 75 | 1009.1 |
| 20260505190850 | 12 | 70 | 3.2 | 11.3 | 0.00 | 0.15 | 0.13 | 75 | 1008.5 |
| 20260505180849 | 13 | 40 | 3.2 | 12.9 | 0.00 | 0.15 | 0.13 | 77 | 1008.2 |
| 20260505170851 | 13 | 75 | 1.6 | 14.5 | 0.00 | 0.15 | 0.13 | 77 | 1008.5 |
| 20260505160849 | 13 | 48 | 6.4 | 14.5 | 0.00 | 0.15 | 0.13 | 78 | 1009.0 |
| 20260505150849 | 12 | 344 | 4.8 | 12.9 | 0.00 | 0.15 | 0.13 | 81 | 1009.2 |
| 20260505120847 | 11 | 50 | 4.8 | 16.1 | 0.00 | 0.15 | 0.13 | 85 | 1010.1 |
| 20260505110847 | 11 | 340 | 4.8 | 12.9 | 0.00 | 0.18 | 0.13 | 87 | 1010.5 |
| 20260505100846 | 10 | 55 | 4.8 | 14.5 | 0.00 | 0.18 | 0.13 | 91 | 1010.7 |
| 20260505093845 | 10 | 37 | 4.8 | 14.5 | 0.00 | 0.61 | 0.13 | 92 | 1010.7 |
| 20260505091013 | 10 | 58 | 4.8 | 12.9 | 0.00 | 0.61 | 0.13 | 93 | 1010.7 |
| 20260505070904 | 10 | 55 | 1.6 | 14.5 | 0.00 | 0.61 | 0.13 | 94 | 1010.8 |
| 20260505060845 | 10 | 60 | 3.2 | 14.5 | 0.00 | 0.61 | 0.13 | 94 | 1011.0 |
| 20260505053852 | 10 | 67 | 1.6 | 12.9 | 0.00 | 0.61 | 0.13 | 94 | 1010.7 |
| 20260505030845 | 11 | 356 | 4.8 | 12.9 | 0.05 | 0.58 | 0.10 | 93 | 1010.9 |
| 20260505020844 | 11 | 69 | 3.2 | 12.9 | 0.03 | 0.51 | 0.05 | 92 | 1010.7 |
| 20260505010844 | 12 | 34 | 1.6 | 14.5 | 0.00 | 0.51 | 0.03 | 92 | 1011.1 |
| 20260505000847 | 12 | 132 | 1.6 | 16.1 | 0.00 | 0.51 | 0.03 | 91 | 1011.2 |
| 20260504230845 | 13 | 111 | 1.6 | 8.0 | 0.03 | 0.48 | 0.00 | 92 | 1011.8 |
| 20260504230838 | 13 | 48 | 1.6 | 11.3 | 0.03 | 0.51 | 0.03 | 92 | 1011.6 |